Temp
-4 -4 -4 -4 -3 -3 -4 -4 -4 -4 -4 -4 -4 -5 -5 -5 -5 -5 -5 -5 -5 -5 -5 -6 -6 -6 -6 -6 -6 -6 -6 -6 -6 -6 -6 -6 -6 -6 -6 -6 -6 -6
-4 -4 -4 -4 -4 -4 -4 -4 -4 -4 -4 -4 -4 -5 -5 -5 -5 -5 -5 -5 -5 -5 -5 -5 -5 -6 -6 -6 -6 -6 -6 -6 -6 -6 -6 -6 -6 -6 -6 -6 -7 -7
-4 -4 -4 -4 -4 -4 -4 -4 -4 -4 -4 -4 -4 -5 -5 -5 -5 -5 -5 -5 -5 -5 -5 -5 -5 -5 -5 -6 -6 -6 -6 -6 -6 -6 -6 -6 -6 -6 -6 -7 -7 -7
-4 -5 -4 -4 -4 -4 -4 -4 -4 -4 -4 -4 -4 -4 -4 -5 -5 -5 -5 -5 -5 -5 -5 -5 -5 -5 -5 -5 -5 -6 -6 -6 -6 -6 -6 -7 -7 -7 -7 -7 -7 -7
-4 -4 -4 -4 -4 -4 -4 -4 -4 -4 -4 -4 -4 -4 -4 -4 -4 -5 -5 -5 -5 -5 -5 -5 -5 -5 -5 -5 -5 -5 -6 -6 -6 -6 -6 -7 -7 -7 -7 -7 -7 -7
-4 -4 -4 -4 -4 -4 -4 -4 -4 -4 -4 -4 -4 -4 -4 -5 -5 -5 -5 -5 -5 -5 -5 -5 -5 -5 -5 -5 -5 -5 -5 -6 -6 -6 -6 -6 -7 -7 -7 -7 -7 -7
-4 -4 -4 -4 -4 -4 -4 -4 -4 -4 -4 -4 -4 -5 -5 -5 -5 -5 -5 -5 -5 -5 -5 -5 -5 -5 -5 -5 -5 -5 -5 -5 -6 -6 -6 -6 -7 -7 -7 -7 -7 -7
-4 -4 -4 -4 -4 -4 -4 -4 -4 -4 -4 -4 -5 -5 -5 -5 -5 -5 -5 -5 -5 -5 -5 -5 -5 -5 -5 -5 -5 -5 -5 -5 -6 -6 -6 -6 -7 -7 -7 -7 -7 -8
-4 -4 -4 -4 -4 -4 -5 -5 -4 -4 -4 -5 -5 -5 -5 -5 -5 -5 -5 -5 -5 -5 -5 -5 -5 -5 -5 -6 -6 -6 -6 -6 -6 -6 -6 -6 -7 -7 -7 -7 -8 -8
-4 -4 -4 -4 -4 -4 -4 -4 -4 -4 -4 -4 -5 -5 -5 -5 -5 -5 -5 -5 -5 -5 -5 -5 -5 -5 -5 -6 -6 -6 -6 -6 -6 -6 -6 -7 -7 -7 -7 -8 -8 -8
-4 -4 -4 -4 -4 -4 -5 -4 -4 -4 -4 -5 -5 -5 -5 -5 -5 -5 -5 -5 -5 -4 -4 -5 -5 -5 -6 -6 -6 -6 -6 -6 -6 -7 -7 -7 -7 -7 -7 -8 -8 -8
-4 -4 -5 -5 -5 -5 -5 -5 -4 -4 -5 -5 -5 -5 -5 -5 -5 -5 -4 -4 -5 -5 -5 -5 -5 -5 -6 -6 -6 -6 -6 -6 -6 -6 -7 -7 -7 -7 -7 -8 -8 -8
-5 -5 -5 -5 -5 -5 -5 -5 -5 -5 -5 -5 -5 -5 -5 -5 -5 -5 -5 -4 -5 -5 -5 -5 -5 -5 -5 -5 -5 -5 -6 -6 -6 -6 -6 -7 -7 -7 -7 -7 -7 -8
-5 -5 -5 -5 -5 -5 -5 -5 -5 -5 -5 -5 -5 -5 -5 -5 -5 -5 -5 -5 -5 -5 -5 -5 -5 -5 -5 -5 -5 -5 -6 -6 -6 -6 -6 -6 -7 -7 -7 -7 -7 -7
-5 -5 -5 -5 -5 -5 -5 -5 -5 -5 -5 -5 -5 -5 -5 -5 -5 -5 -5 -5 -5 -5 -5 -5 -5 -5 -5 -5 -5 -5 -6 -6 -6 -6 -6 -6 -7 -7 -7 -7 -7 -7
-5 -5 -5 -5 -5 -5 -5 -5 -5 -5 -5 -5 -5 -5 -5 -5 -5 -5 -5 -5 -5 -5 -5 -5 -5 -5 -5 -6 -6 -6 -6 -6 -6 -6 -6 -6 -7 -7 -7 -7 -7 -7
-6 -6 -6 -6 -5 -5 -5 -5 -5 -5 -5 -5 -5 -5 -5 -5 -5 -6 -6 -6 -6 -6 -6 -6 -6 -6 -6 -6 -6 -6 -6 -6 -6 -6 -7 -7 -7 -7 -7 -7 -7 -7
-6 -6 -6 -6 -6 -6 -5 -5 -5 -5 -5 -5 -5 -5 -5 -5 -6 -6 -6 -6 -6 -6 -6 -6 -6 -6 -6 -6 -7 -7 -7 -7 -7 -7 -7 -7 -7 -7 -7 -7 -7 -7
-6 -6 -6 -6 -6 -6 -6 -5 -5 -5 -5 -5 -5 -6 -5 -5 -6 -6 -6 -6 -6 -6 -6 -6 -6 -6 -7 -7 -7 -7 -7 -7 -7 -7 -7 -7 -7 -7 -7 -7 -7 -7
-6 -6 -6 -6 -6 -6 -6 -6 -5 -5 -5 -5 -5 -5 -6 -6 -6 -6 -6 -6 -6 -6 -7 -7 -7 -7 -7 -7 -7 -7 -7 -7 -7 -7 -7 -7 -7 -7 -7 -7 -7 -7
-7 -7 -7 -6 -6 -6 -6 -6 -6 -6 -6 -6 -5 -6 -6 -6 -6 -6 -6 -7 -7 -7 -7 -7 -7 -7 -7 -7 -7 -7 -7 -7 -7 -7 -7 -7 -7 -7 -7 -7 -7 -7
-7 -7 -7 -7 -7 -7 -6 -6 -6 -6 -6 -6 -6 -6 -6 -6 -6 -6 -7 -7 -7 -7 -7 -7 -7 -7 -7 -7 -7 -7 -8 -8 -8 -8 -7 -7 -7 -7 -7 -7 -8 -8
-7 -7 -7 -7 -7 -7 -7 -6 -6 -6 -6 -6 -6 -6 -6 -6 -6 -7 -7 -7 -7 -7 -7 -7 -7 -7 -7 -7 -7 -8 -8 -8 -8 -8 -8 -8 -7 -7 -7 -8 -8 -8
-7 -7 -7 -7 -7 -7 -7 -7 -7 -6 -6 -6 -6 -6 -6 -6 -6 -7 -7 -7 -7 -7 -7 -7 -7 -7 -7 -7 -8 -8 -8 -8 -8 -8 -8 -8 -8 -8 -8 -8 -8 -8
-7 -7 -7 -7 -7 -7 -7 -7 -7 -6 -6 -6 -6 -6 -6 -7 -7 -7 -7 -7 -7 -7 -7 -7 -7 -7 -7 -8 -8 -8 -8 -8 -8 -8 -8 -8 -8 -8 -8 -7 -7 -8
-7 -7 -7 -7 -7 -7 -7 -7 -7 -6 -6 -6 -6 -6 -7 -7 -7 -7 -7 -7 -7 -7 -7 -7 -7 -7 -8 -8 -8 -8 -8 -8 -7 -7 -7 -7 -7 -7 -7 -7 -7 -8
Height
5933 5934 5936 5937 5939 5941 5942 5944 5945 5946 5947 5948 5949 5949 5950 5951 5951 5952 5953 5953 5954 5954 5954 5955 5955 5955 5955 5955 5954 5954 5954 5954 5954 5954 5955 5955 5954 5954 5954 5954 5954 5954
5932 5934 5935 5937 5939 5940 5942 5943 5944 5946 5947 5947 5948 5949 5950 5950 5951 5951 5952 5953 5953 5953 5954 5954 5954 5955 5955 5955 5954 5954 5954 5954 5954 5954 5954 5954 5954 5954 5954 5954 5954 5954
5931 5933 5934 5936 5938 5939 5941 5942 5944 5945 5946 5947 5948 5949 5949 5950 5950 5950 5951 5952 5952 5953 5953 5953 5954 5954 5954 5955 5954 5954 5953 5953 5953 5953 5953 5953 5953 5953 5953 5953 5953 5953
5930 5932 5933 5935 5937 5938 5940 5941 5943 5944 5945 5946 5947 5948 5949 5949 5949 5950 5950 5950 5951 5952 5952 5952 5953 5953 5953 5954 5954 5954 5953 5953 5952 5952 5952 5952 5952 5952 5952 5952 5952 5952
5928 5930 5932 5934 5935 5937 5939 5940 5941 5943 5944 5945 5946 5947 5948 5948 5948 5949 5949 5949 5950 5950 5951 5951 5951 5952 5952 5952 5953 5953 5953 5952 5952 5951 5951 5951 5951 5951 5951 5951 5951 5951
5926 5928 5931 5932 5934 5936 5937 5939 5940 5941 5943 5944 5945 5945 5946 5947 5947 5947 5948 5948 5948 5949 5949 5949 5949 5950 5950 5951 5951 5951 5951 5951 5951 5950 5950 5950 5950 5950 5950 5950 5950 5950
5924 5927 5929 5931 5933 5934 5936 5937 5938 5940 5941 5942 5943 5944 5945 5945 5946 5946 5946 5947 5947 5947 5947 5947 5947 5948 5948 5949 5949 5949 5949 5950 5950 5949 5949 5949 5949 5949 5949 5949 5948 5948
5922 5924 5927 5929 5931 5932 5934 5935 5937 5938 5939 5940 5941 5942 5943 5944 5944 5944 5945 5945 5945 5945 5945 5945 5945 5945 5946 5947 5947 5948 5948 5948 5948 5948 5948 5948 5947 5947 5947 5947 5947 5947
5920 5923 5925 5927 5929 5930 5932 5934 5935 5936 5937 5939 5939 5940 5941 5942 5942 5943 5943 5943 5943 5943 5943 5943 5943 5943 5944 5945 5945 5946 5946 5946 5946 5946 5946 5947 5946 5946 5946 5946 5946 5946
5919 5921 5924 5926 5927 5929 5930 5932 5933 5935 5936 5937 5938 5939 5939 5940 5940 5941 5941 5941 5941 5941 5941 5941 5941 5941 5942 5943 5943 5944 5944 5945 5945 5945 5944 5945 5945 5945 5945 5945 5945 5944
5917 5920 5922 5924 5926 5927 5929 5930 5932 5933 5934 5935 5936 5937 5938 5938 5938 5939 5939 5939 5939 5939 5939 5939 5940 5940 5940 5941 5941 5942 5942 5943 5943 5943 5943 5943 5943 5943 5944 5944 5943 5943
5915 5918 5920 5922 5924 5926 5927 5929 5930 5932 5933 5934 5935 5935 5936 5936 5937 5937 5937 5938 5938 5938 5938 5938 5938 5938 5938 5939 5939 5939 5940 5940 5941 5941 5941 5941 5941 5941 5942 5942 5942 5942
5914 5916 5918 5920 5922 5924 5925 5927 5929 5930 5931 5932 5933 5933 5934 5935 5935 5935 5936 5936 5936 5936 5936 5936 5937 5937 5937 5937 5938 5938 5938 5938 5939 5939 5940 5940 5940 5940 5940 5940 5941 5941
5912 5914 5916 5918 5920 5922 5923 5925 5927 5928 5929 5930 5931 5932 5932 5933 5933 5933 5934 5934 5935 5935 5935 5935 5935 5935 5936 5936 5936 5937 5937 5937 5937 5938 5938 5939 5939 5939 5939 5939 5939 5939
5910 5912 5914 5916 5918 5919 5921 5923 5924 5925 5927 5928 5929 5930 5930 5931 5931 5932 5932 5933 5933 5933 5934 5934 5934 5934 5935 5935 5935 5936 5936 5936 5936 5937 5937 5937 5938 5938 5938 5938 5938 5938
5908 5910 5912 5913 5915 5917 5919 5920 5921 5923 5924 5925 5926 5927 5928 5929 5929 5930 5931 5931 5931 5932 5932 5932 5933 5933 5933 5934 5934 5935 5935 5936 5936 5936 5936 5936 5937 5937 5937 5937 5937 5937
5906 5908 5910 5911 5913 5914 5916 5918 5919 5920 5922 5923 5924 5925 5926 5927 5927 5928 5929 5929 5929 5930 5931 5931 5931 5931 5932 5932 5933 5933 5934 5934 5935 5935 5935 5936 5936 5936 5936 5936 5936 5936
5905 5906 5908 5909 5911 5912 5913 5914 5916 5917 5918 5920 5922 5922 5923 5924 5925 5926 5926 5927 5928 5929 5929 5930 5930 5930 5930 5931 5931 5931 5932 5933 5934 5934 5935 5935 5935 5935 5934 5934 5934 5935
5903 5904 5906 5907 5908 5909 5910 5911 5913 5914 5916 5917 5919 5919 5920 5922 5923 5924 5924 5925 5926 5927 5927 5928 5928 5928 5929 5929 5929 5930 5930 5931 5932 5933 5933 5933 5933 5933 5933 5933 5933 5933
5901 5902 5903 5904 5905 5906 5908 5909 5910 5911 5912 5914 5915 5916 5918 5919 5920 5921 5922 5923 5924 5924 5925 5926 5926 5927 5927 5928 5928 5928 5929 5929 5930 5931 5931 5931 5932 5932 5932 5931 5931 5930
5899 5900 5901 5902 5902 5903 5905 5906 5907 5908 5909 5910 5912 5914 5915 5916 5917 5918 5919 5921 5922 5922 5923 5924 5924 5925 5925 5926 5926 5927 5927 5927 5927 5928 5928 5929 5930 5930 5929 5929 5928 5928
5897 5898 5899 5899 5900 5900 5901 5903 5904 5905 5906 5907 5909 5911 5912 5913 5914 5915 5916 5917 5918 5919 5921 5922 5923 5923 5924 5924 5925 5925 5924 5925 5925 5925 5925 5926 5927 5927 5926 5926 5926 5925
5895 5896 5897 5897 5897 5898 5899 5900 5901 5902 5903 5904 5905 5907 5909 5910 5912 5913 5914 5914 5915 5916 5918 5919 5920 5921 5922 5922 5922 5922 5922 5922 5922 5922 5922 5923 5923 5923 5923 5923 5922 5922
5892 5893 5894 5895 5895 5896 5896 5897 5898 5899 5900 5901 5902 5904 5905 5907 5908 5909 5910 5912 5913 5914 5915 5916 5917 5918 5919 5919 5919 5919 5919 5919 5920 5920 5920 5920 5920 5919 5919 5919 5918 5918
5888 5890 5891 5892 5893 5893 5894 5894 5895 5896 5897 5898 5899 5900 5902 5903 5904 5906 5907 5908 5910 5911 5912 5913 5914 5915 5915 5916 5916 5916 5916 5916 5916 5917 5917 5917 5916 5915 5915 5914 5914 5914
5885 5886 5888 5889 5890 5891 5891 5892 5892 5893 5894 5895 5896 5897 5898 5899 5901 5902 5904 5905 5906 5908 5909 5910 5911 5912 5912 5912 5913 5912 5912 5912 5913 5913 5914 5913 5912 5912 5912 5911 5910 5910
Wind_Speed
13 13 13 12 11 9 9 9 9 8 8 7 6 5 4 5 5 4 3 3 3 3 3 4 4 3 3 5 6 6 6 5 5 6 5 5 4 3 3 3 4 4
12 13 12 11 10 9 9 9 8 9 9 8 7 5 5 6 6 5 4 4 5 5 6 6 6 5 5 5 6 7 7 7 7 6 7 7 7 6 5 5 5 5
11 12 11 11 10 9 8 8 8 9 9 8 8 8 8 8 8 8 8 7 8 8 8 8 8 8 7 6 6 7 8 9 9 8 8 8 9 8 8 7 7 6
11 11 10 10 9 8 7 7 7 8 8 8 9 9 9 9 9 10 10 10 10 10 11 11 10 10 10 9 8 8 8 9 10 10 10 9 10 10 10 10 9 9
12 11 10 9 9 8 6 6 7 7 7 8 8 8 8 9 10 10 11 11 11 11 12 12 12 12 12 12 11 10 9 10 10 11 11 10 10 10 11 11 11 11
11 10 9 9 9 9 7 7 7 7 8 8 8 8 8 9 10 11 11 12 12 13 13 13 13 13 13 13 13 12 12 11 12 12 13 12 11 10 11 11 12 12
10 10 9 10 10 9 9 8 8 8 8 8 8 8 9 9 10 10 11 12 13 13 14 14 14 14 14 14 14 14 14 13 13 13 14 14 13 12 12 12 12 12
11 10 10 11 10 10 10 9 9 9 9 9 8 9 9 9 9 9 10 11 12 13 14 14 15 15 15 14 14 14 14 15 15 14 14 15 15 15 14 13 13 13
12 11 12 11 11 11 10 10 10 10 9 9 9 8 8 8 8 8 9 10 11 12 13 14 15 15 15 15 14 14 15 15 16 16 15 15 15 16 15 14 14 14
11 11 12 12 11 11 11 10 10 10 10 9 9 8 8 8 8 8 9 10 10 10 11 12 13 13 13 13 13 14 14 15 16 16 17 16 15 15 15 15 15 15
12 12 12 12 12 11 10 10 9 9 10 10 9 9 9 9 9 8 9 10 10 9 8 8 9 10 11 12 12 13 13 14 15 15 16 17 17 16 15 15 15 16
14 14 13 12 11 10 9 9 9 9 9 10 10 10 10 9 9 9 9 8 8 7 7 6 5 6 8 9 10 11 11 12 13 14 14 16 17 17 16 16 16 16
14 14 13 12 11 10 10 9 9 9 9 10 11 11 10 10 10 9 8 8 7 6 5 4 4 4 6 6 7 7 8 9 10 11 11 11 13 14 15 15 15 16
14 14 13 12 12 11 11 10 10 10 10 11 11 11 10 11 11 9 8 8 7 6 5 4 4 4 4 4 4 5 6 8 9 10 10 10 10 11 12 13 14 15
14 14 14 14 14 13 12 13 13 13 12 12 12 12 11 12 11 10 8 8 7 6 5 4 4 3 3 3 3 3 5 6 8 10 10 11 11 11 11 12 13 15
13 13 14 15 15 15 15 15 16 16 15 14 13 13 12 12 11 10 9 8 7 6 5 5 4 4 3 3 3 3 4 5 7 9 11 12 13 13 13 13 13 15
10 12 13 14 15 16 17 17 18 18 17 16 15 14 13 13 12 11 9 9 8 6 6 6 6 5 4 4 4 5 6 6 7 9 11 12 14 14 15 14 14 15
11 12 13 14 15 16 17 18 19 20 20 18 15 15 15 14 12 11 11 10 8 7 7 8 7 6 5 5 6 7 8 8 8 8 9 11 12 13 14 14 14 14
12 12 13 14 15 16 17 18 19 19 20 19 17 17 17 15 13 12 11 11 9 9 9 9 8 7 6 7 7 9 10 11 10 9 8 8 9 10 11 13 14 15
13 13 13 14 15 16 16 17 17 18 19 20 19 19 17 16 15 14 12 12 11 11 10 9 9 9 9 9 9 10 12 12 12 10 9 8 9 9 11 13 14 16
14 14 15 15 16 17 16 15 16 17 19 21 20 19 18 17 17 16 14 13 12 12 12 11 11 11 11 11 12 12 13 14 13 13 12 11 11 12 13 15 16 18
16 17 17 17 17 17 17 16 16 17 19 21 21 19 19 18 17 16 15 15 15 14 13 12 13 14 14 13 13 14 14 15 16 17 17 16 16 16 16 18 19 20
19 18 18 17 16 17 17 17 17 17 19 21 21 19 18 17 17 17 16 17 17 16 13 12 13 14 14 13 13 14 15 16 18 20 22 21 21 20 20 20 21 21
22 20 18 17 17 16 16 17 18 19 20 21 21 20 19 18 18 17 17 17 17 17 15 14 14 14 13 12 13 15 17 18 20 22 23 24 25 25 26 25 25 25
24 22 19 18 19 17 16 17 19 20 21 22 21 21 20 19 19 18 17 17 16 16 16 15 14 14 14 14 15 18 19 21 22 23 23 24 25 27 28 28 28 29
26 24 20 19 20 20 18 18 19 20 22 22 21 21 21 20 19 17 16 16 16 16 16 15 14 14 15 17 19 20 22 23 23 23 22 23 25 26 27 28 29 31
Wind_Direction
211 206 204 202 200 201 202 202 201 200 203 208 211 208 202 202 212 224 233 248 271 292 300 305 315 325 333 335 337 341 341 338 326 316 313 313 310 306 314 326 325 321
208 206 205 202 199 200 203 203 203 200 203 212 220 223 221 223 233 245 255 262 271 283 291 294 300 304 310 316 321 328 334 337 336 330 323 318 314 309 303 303 308 313
204 206 205 204 203 205 206 203 200 200 203 210 218 226 233 240 248 256 263 267 268 273 280 285 288 292 297 301 302 308 317 325 332 336 336 328 320 314 309 304 303 308
199 202 205 209 213 213 208 199 196 199 205 211 219 227 237 248 254 260 266 270 271 272 275 278 280 281 285 289 292 294 298 306 316 325 333 333 326 320 314 309 305 305
195 198 204 214 222 223 213 201 201 206 211 217 223 230 237 247 254 260 266 270 273 274 275 276 277 278 279 281 284 286 287 290 296 305 314 321 324 322 316 311 306 303
195 199 203 211 219 224 223 219 217 217 222 227 232 239 245 251 258 262 267 272 274 275 275 275 276 277 277 278 280 282 283 284 285 289 296 303 309 312 313 310 304 300
201 203 203 204 208 215 221 223 223 224 230 237 244 252 258 262 266 269 271 274 275 275 274 273 273 274 274 275 277 279 281 282 282 283 286 291 296 299 303 305 302 297
206 204 200 198 200 207 214 219 226 232 239 245 252 259 265 271 274 275 276 275 276 276 275 273 271 269 269 270 272 276 278 281 282 282 282 284 288 292 296 301 301 295
206 202 200 200 201 206 213 220 230 238 245 250 255 264 272 276 278 280 283 282 279 275 273 272 271 269 269 269 271 274 277 280 283 284 284 283 284 287 291 296 299 296
206 205 206 206 208 212 218 226 235 243 249 251 256 267 273 274 276 281 286 286 283 279 273 271 273 275 275 273 273 275 276 279 283 285 287 286 284 283 285 290 295 296
201 204 208 210 212 216 221 230 239 247 251 251 253 261 267 271 275 279 283 284 285 286 283 276 275 277 279 279 278 278 277 277 278 279 282 285 285 284 281 282 286 291
196 199 203 207 210 216 222 230 239 245 246 248 250 256 262 267 270 273 280 285 287 285 283 282 280 277 277 278 280 281 281 281 282 282 283 285 288 289 287 283 282 284
195 197 200 204 210 217 225 231 238 244 244 245 248 253 259 262 264 270 279 287 288 282 279 280 279 272 271 276 283 289 293 298 302 305 305 303 303 304 303 299 294 291
201 202 204 210 216 223 232 238 242 245 245 246 249 251 255 259 264 272 279 284 285 285 284 280 272 268 270 280 293 302 308 314 320 325 328 328 326 325 322 319 316 313
213 215 217 222 227 231 237 242 246 247 246 248 251 252 254 260 267 274 277 278 280 282 282 276 268 266 269 282 301 316 318 322 326 330 334 335 336 337 334 330 327 324
222 226 229 233 237 239 242 245 248 250 250 250 252 254 257 262 268 273 273 272 275 277 273 268 260 255 257 274 298 318 326 332 334 336 339 341 342 344 344 342 339 334
237 241 244 246 247 248 248 249 249 250 251 250 251 254 257 261 268 272 268 266 269 271 266 261 254 252 261 280 300 316 324 333 340 340 341 343 344 346 347 347 346 343
257 256 257 257 257 256 254 251 248 247 247 248 249 252 255 258 263 267 265 262 261 261 260 258 256 259 271 286 300 309 314 324 337 341 343 343 342 341 340 339 339 339
264 264 263 262 260 258 256 254 250 246 244 244 244 246 250 255 258 260 261 260 258 254 253 255 258 264 273 279 288 296 301 310 324 334 338 336 332 331 329 326 326 325
269 271 271 270 266 260 256 256 253 247 241 239 239 242 247 252 256 257 254 252 251 250 251 254 257 261 266 270 277 283 288 296 308 316 320 317 312 311 310 310 311 312
269 273 276 278 274 265 259 255 251 245 238 235 237 240 243 247 252 256 256 253 249 245 246 249 252 256 263 268 274 279 284 292 302 307 308 307 305 301 299 299 301 303
265 269 275 278 273 266 260 253 246 242 238 235 236 239 242 246 250 255 258 256 251 246 241 239 241 247 254 261 268 276 283 291 298 301 302 303 301 297 294 293 294 297
260 262 269 270 263 262 263 254 243 238 236 236 237 239 242 247 251 253 252 250 249 250 248 242 241 245 249 256 266 274 280 284 287 290 294 297 297 294 290 288 288 290
257 259 263 259 251 255 262 256 245 238 236 238 239 239 241 246 250 251 250 248 247 248 249 247 247 250 254 260 269 273 275 276 277 280 285 289 290 289 287 285 285 286
256 260 259 249 244 249 255 255 249 241 237 239 241 242 243 246 248 249 248 247 245 243 244 243 243 249 256 261 265 267 269 271 272 275 279 281 282 283 284 286 286 286
255 258 256 244 240 244 247 249 248 243 239 240 241 242 244 245 246 246 244 243 241 237 235 234 236 243 252 258 261 263 266 268 271 274 277 277 278 281 284 287 288 288